Weather Roundup
Issued by NWS Springfield, MO

Home | Current Version | Previous Version | Text Only | Print | Product List | Glossary On
Versions: 1 2 3 4 5 6 7 8 9 10 11 12 13 14 15 16 17 18 19 20 21 22 23 24 25 26 27 28 29 30 31 32 33 34 35 36 37 38 39 40 41 42 43 44 45 46 47 48 49 50
000
NZUS99 KSGF 012307
HRRSGF

HOURLY WEATHER
NATIONAL WEATHER SERVICE SPRINGFIELD MO
500 PM CST SUN MAR 01 2015

......SGF CWA......

CITY           SKY/WX    TMP DP  RH WIND       PRES   REMARKS
SPRINGFIELD    CLOUDY    31  25  78 NW10      30.35R WCI  22
JOPLIN         CLOUDY    31  24  75 N6        30.39R WCI  25
WEST PLAINS    CLOUDY    34  29  82 N5        30.32S WCI  30
ROLLA          CLOUDY    29  23  78 NW6       30.33S WCI  23
OSAGE BEACH    CLOUDY    30  23  74 CALM      30.37R
BRANSON        CLOUDY    32  32 100 CALM      30.34R FOG

......SURROUNDING SGF CWA......

CITY           SKY/WX    TMP DP  RH WIND       PRES   REMARKS
CHANUTE        MOSUNNY   32  21  64 N9        30.39S WCI  24
PARSONS        PTSUNNY   32  23  69 N7        30.41R WCI  26
COFFEYVILLE    CLOUDY    32  23  69 N7        30.41R WCI  26
EMPORIA        SUNNY     33  21  61 N7        30.38S WCI  27
GROVE OK       CLOUDY    34  32  93 NW3       30.40R
ROGERS AR      CLOUDY    32  30  92 NW7       30.35R FOG     WCI  26
SILOAM SPRINGS CLOUDY    32  25  74 CALM      30.36S
HARRISON AR    CLOUDY    32  31  96 NW6       30.33R FOG     WCI  26
NEAR YELLVILLE CLOUDY    36  30  80 NW5       30.35R WCI  32

......KANSAS AND MISSOURI......

CITY           SKY/WX    TMP DP  RH WIND       PRES   REMARKS
KANSAS CTY INT PTSUNNY   32  21  64 NW7       30.38R WCI  26
DOWNTOWN KC    MOSUNNY   34  21  59 NW7       30.40R WCI  28
COLUMBIA       MOSUNNY   30  21  69 NW9       30.37R WCI  22
SEDALIA        MOSUNNY   29  20  69 N6        30.39S WCI  23
ST JOSEPH      PTSUNNY   32  21  64 CALM      30.40R
ST LOUIS       CLOUDY    32  23  69 NW7       30.36S WCI  26
SPIRIT OF STL  CLOUDY    31  23  72 NW8       30.36S WCI  23
KIRKSVILLE     PTSUNNY   29  20  69 W8        30.36S WCI  21
WICHITA        MOSUNNY   31  19  61 NE8       30.38S WCI  23
TOPEKA         MOSUNNY   35  21  56 NW7       30.40R WCI  29
OLATHE         PTSUNNY   33  21  61 N9        30.37R WCI  25

......TENNESSEE......

CITY           SKY/WX    TMP DP  RH WIND       PRES   REMARKS
MEMPHIS        LGT RAIN  44  42  93 NW3       30.32S VSB 1
NASHVILLE      CLOUDY    51  49  92 S3        30.30F

......ARKANSAS.......

CITY           SKY/WX    TMP DP  RH WIND       PRES   REMARKS
FAYETTEVILLE   CLOUDY    33  31  92 NW7       30.34S WCI  27
FT SMITH       CLOUDY    39  34  82 NW7       30.36S WCI  34
LITTLE ROCK    DRIZZLE   41  38  89 N3        30.35R FOG

......OKLAHOMA.......

CITY           SKY/WX    TMP DP  RH WIND       PRES   REMARKS
TULSA          CLOUDY    33  26  75 NE5       30.39S WCI  29
PONCA CITY     CLOUDY    32  23  69 N9        30.39S WCI  24
MCALESTER      CLOUDY    35  31  85 N7        30.37R WCI  29
OKLAHOMA CITY  CLOUDY    34  26  72 N8        30.35S WCI  27

......IOWA............

CITY           SKY/WX    TMP DP  RH WIND       PRES   REMARKS
DES MOINES     MOSUNNY   33  17  51 NW14      30.35S WCI  23
QUAD CITIES    CLEAR     26  16  65 W13       30.32F WCI  15

......ILLINOIS........

CITY           SKY/WX    TMP DP  RH WIND       PRES   REMARKS
QUINCY         MOCLDY    27  18  69 NW8       30.37R WCI  19
CHICAGO        MOCLDY    23  14  68 W14       30.26S WCI  11



USA.gov is the U.S. government's official web portal to all federal, state and local government web resources and services.